Washington, PA

6:37 AM EST on December 11, 2019 (GMT -0500)
Washington County

Weather History for KAFJ - October, 2019

Change the Weather History Date:

Tuesday, October 8, 2019

  Actual Average Record
Temperature  
Mean Temperature 56 °F -  
Max Temperature 66 °F 63 °F 93 °F (2007)
Min Temperature 46 °F 41 °F 24 °F (2001)
Degree Days  
Heating Degree Days 9    
Growing Degree Days 6 (Base 50)    
Moisture  
Dew Point 48 °F    
Average Humidity 86    
Maximum Humidity 100    
Minimum Humidity 45    
Precipitation  
Precipitation 0.01 in - - ()
Sea Level Pressure  
Sea Level Pressure 30.27 in    
Wind  
Wind Speed 3 mph ()    
Max Wind Speed 16 mph    
Max Gust Speed 21 mph    
Visibility 5.4 miles    
Events Fog    
Averages and records for this station are not official NWS values.
T = Trace of Precipitation, MM = Missing Value Source: Averaged Metar Reports

Daily Weather History Graph

Daily Weather History Graph

Search for Another Location

Airport or City:

Astronomy

Oct. 08, 2019 Rise Set
Actual Time 7:24 AM EDT 6:52 PM EDT
Civil Twilight 6:57 AM EDT 7:19 PM EDT
Nautical Twilight 6:25 AM EDT 7:51 PM EDT
Astronomical Twilight 5:54 AM EDT 8:22 PM EDT
Moon 4:50 PM EDT (10/8) 2:11 AM EDT (10/8)
Length of Visible Light 12h 22m
Length of Day
11h 28m
Waxing Gibbous, 77% of the Moon is Illuminated
Oct 8
Waxing Gibbous
Oct 13
Full
Oct 21
Last Quarter
Oct 27
New
Nov 4
First Quarter

Hourly Weather History & Observations

Time (EDT) Temp. Dew Point Humidity Pressure Visibility Wind Dir Wind Speed Gust Speed Precip Events Conditions
12:04 AM 50.0 °F 48.2 °F 94% 30.28 in 0.2 mi Calm Calm - N/A Fog Fog
12:54 AM 48.2 °F 48.2 °F 100% 30.26 in 0.2 mi Calm Calm - N/A Fog Fog
12:56 AM 48.9 °F 48.0 °F 97% 30.27 in 0.2 mi Calm Calm - N/A Fog Fog
1:11 AM 48.2 °F 48.2 °F 100% 30.26 in 0.5 mi Calm Calm - N/A Fog Fog
1:29 AM 48.2 °F 48.2 °F 100% 30.27 in 0.2 mi Calm Calm - N/A Fog Fog
1:56 AM 48.9 °F 48.0 °F 97% 30.28 in 0.2 mi Calm Calm - N/A Fog Fog
2:52 AM 46.4 °F 46.4 °F 100% 30.27 in 0.5 mi Calm Calm - N/A Fog Fog
2:56 AM 46.9 °F 46.9 °F 100% 30.28 in 0.2 mi Calm Calm - N/A Fog Fog
3:56 AM 46.0 °F 46.0 °F 100% 30.27 in 0.2 mi Calm Calm - N/A Fog Fog
4:56 AM 46.0 °F 45.0 °F 96% 30.28 in 0.2 mi Calm Calm - 0.01 in Fog Fog
5:08 AM 46.4 °F 46.4 °F 100% 30.27 in 0.5 mi Calm Calm - N/A Fog Fog
5:56 AM 48.9 °F 48.9 °F 100% 30.29 in 0.5 mi North 5.8 mph - N/A Fog Fog
6:08 AM 48.2 °F 48.2 °F 100% 30.28 in 1.0 mi NNE 3.5 mph - N/A   Overcast
6:17 AM 50.0 °F 50.0 °F 100% 30.28 in 1.8 mi NNE 4.6 mph - N/A   Overcast
6:25 AM 50.0 °F 50.0 °F 100% 30.28 in 2.0 mi NNE 4.6 mph - N/A   Overcast
6:33 AM 50.0 °F 50.0 °F 100% 30.29 in 1.2 mi NE 5.8 mph - N/A   Overcast
6:56 AM 51.1 °F 51.1 °F 100% 30.30 in 2.5 mi NE 8.1 mph - N/A   Overcast
7:04 AM 51.8 °F 51.8 °F 100% 30.29 in 4.0 mi NE 9.2 mph - N/A   Overcast
7:30 AM 51.8 °F 51.8 °F 100% 30.29 in 5.0 mi NE 10.4 mph - N/A   Overcast
7:56 AM 50.0 °F 50.0 °F 100% 30.31 in 8.0 mi ENE 5.8 mph - N/A   Overcast
8:17 AM 51.8 °F 50.0 °F 94% 30.31 in 7.0 mi NE 4.6 mph - N/A   Overcast
8:56 AM 52.0 °F 50.0 °F 93% 30.31 in 10.0 mi NE 5.8 mph - N/A   Overcast
9:37 AM 53.6 °F 51.8 °F 94% 30.30 in 10.0 mi NE 10.4 mph - N/A   Scattered Clouds
9:56 AM 54.0 °F 51.1 °F 90% 30.31 in 10.0 mi NE 6.9 mph - N/A   Partly Cloudy
10:56 AM 60.1 °F 51.1 °F 72% 30.30 in 10.0 mi ENE 10.4 mph - N/A   Clear
11:56 AM 62.1 °F 46.9 °F 58% 30.30 in 10.0 mi ENE 16.1 mph 20.7 mph N/A   Clear
12:56 PM 64.0 °F 43.0 °F 46% 30.27 in 10.0 mi East 15.0 mph 19.6 mph N/A   Clear
1:56 PM 64.9 °F 43.0 °F 45% 30.26 in 10.0 mi East 12.7 mph 17.3 mph N/A   Clear
2:56 PM 66.0 °F 45.0 °F 47% 30.24 in 10.0 mi East 12.7 mph - N/A   Clear
3:56 PM 66.9 °F 45.0 °F 45% 30.23 in 10.0 mi NE 8.1 mph - N/A   Clear
4:56 PM 64.9 °F 43.0 °F 45% 30.23 in 10.0 mi NE 8.1 mph - N/A   Clear
5:56 PM 63.0 °F 43.0 °F 48% 30.24 in 10.0 mi East 6.9 mph - N/A   Clear
6:56 PM 57.9 °F 44.1 °F 60% 30.24 in 10.0 mi ENE 3.5 mph - N/A   Clear
7:56 PM 54.0 °F 46.9 °F 77% 30.25 in 10.0 mi Calm Calm - N/A   Clear
8:56 PM 51.1 °F 46.9 °F 86% 30.25 in 10.0 mi NE 3.5 mph - N/A   Clear
9:56 PM 48.9 °F 46.0 °F 90% 30.27 in 10.0 mi NE 3.5 mph - N/A   Clear
10:56 PM 48.9 °F 45.0 °F 86% 30.25 in 10.0 mi ENE 3.5 mph - N/A   Clear
11:56 PM 48.9 °F 46.0 °F 90% 30.25 in 10.0 mi Calm Calm - N/A   Clear